Regional Weather Roundup
Issued by NWS

Home | Current Version | Previous Version | Graphics & Text | Print | Product List | Glossary Off
Versions: 1 2 3 4 5 6 7 8 9 10 11 12 13 14 15 16 17 18 19 20 21 22 23 24 25 26 27 28 29 30 31 32 33 34 35 36 37 38 39 40 41 42 43 44 45 46 47 48 49 50

000
ASUS43 KMPX 182210
RWRMN
WEATHER ROUNDUP FOR MINNESOTA
NATIONAL WEATHER SERVICE TWIN CITIES/CHANHASSEN MN
500 PM CDT THU SEP 18 2014


NOTE: "FAIR" INDICATES FEW OR NO CLOUDS BELOW 12,000 FEET WITH NO
SIGNIFICANT WEATHER AND/OR OBSTRUCTIONS TO VISIBILITY. N/A MEANS
CURRENT SKY AND/OR WEATHER CONDITIONS ARE NOT AVAILABLE.

MNZ060>063-068>070-182300-
   Twin Cities Metro

CITY           SKY/WX    TMP DP  RH WIND       PRES   REMARKS
TWIN CITIES    MOSUNNY   74  50  42 S9        29.99F
ST PAUL        MOSUNNY   72  56  57 SE8       30.00F
CRYSTAL        MOSUNNY   75  50  41 SW10      29.98F
BLAINE         MOSUNNY   73  57  56 SE7       29.99F
LAKEVILLE      MOSUNNY   72  54  53 S7        30.00F
SOUTH ST PAUL  MOSUNNY   73  55  53 SE7       30.00S
LAKE ELMO      FAIR      72  57  60 SE9       30.02F
$$
MNZ001>005-007-008-013>017-022>024-027-028-182300-
   Northwest Minnesota

CITY           SKY/WX    TMP DP  RH WIND       PRES   REMARKS
BEMIDJI        SUNNY     65  52  61 SE14      29.91F
HALLOCK        SUNNY     73  54  49 S23G30    29.76F
ROSEAU         SUNNY     70  55  60 SE14G20   29.84F
WARROAD        SUNNY     66  55  68 S10G17    29.86F
THIEF RVR FALL SUNNY     73  55  53 S17G24    29.83F
CROOKSTON      SUNNY     73  57  56 S20G25    29.82F
FOSSTON        PTSUNNY   73  54  49 S15G23    29.87F
DETROIT LAKES  MOSUNNY   70  55  60 S20       29.91F
MOORHEAD       SUNNY     75  61  60 S17G23    29.85F
PARK RAPIDS    MOSUNNY   67  52  58 S15       29.94F
MAHNOMEN       FAIR      69  56  62 S18G25    29.88F
$$
MNZ006-009>011-018-025>026-182300-
   North Central Minnesota

CITY           SKY/WX    TMP DP  RH WIND       PRES   REMARKS
BAUDETTE       SUNNY     64  51  62 SE8       29.89F
FLAG ISLAND    SUNNY     54  48  82 SE8       29.88F
INTL FALLS     SUNNY     63  49  60 SE13      29.94F
WASKISH        SUNNY     66  54  63 SE9G16    29.90F
BIG FORK       SUNNY     64  52  63 S9        29.97F
LONGVILLE      SUNNY     63  54  72 SE8       29.97F
GRAND RAPIDS   SUNNY     61  48  63 SE12G18   30.00F
CRANE LAKE     SUNNY     57  46  67 SE6       30.02F
ORR            SUNNY     61  46  59 S8        29.97F
COOK           SUNNY     61  48  63 S8        30.01F
WALKER         FAIR      62  52  68 SE8       29.94F
$$
MNZ012-019>021-037-182300-
   Northeast Minnesota

CITY           SKY/WX    TMP DP  RH WIND       PRES   REMARKS
DULUTH         CLOUDY    48  42  80 E12       30.07F
ELY            SUNNY     54  41  62 SE10      30.04F
HIBBING        SUNNY     58  46  64 S10G21    30.02F
EVELETH        MOSUNNY   55  46  71 S12       30.04F
DULUTH HARBOR  CLOUDY    52  46  82 NE15      30.09F
TWO HARBORS    CLOUDY    46  37  71 E9        30.08F
SILVER BAY     MOSUNNY   43  39  87 NE6       30.09F
GRAND MARAIS     N/A     46  35  65 E7        30.13F
G MARAIS ARPRT CLOUDY    39  30  70 SE5       30.11F
$$
MNZ029>031-032-039>041-046>048-054>057-064-182300-
   West Central Minnesota

CITY           SKY/WX    TMP DP  RH WIND       PRES   REMARKS
FERGUS FALLS   SUNNY     75  54  46 S16       29.89F
WHEATON        SUNNY     73  55  53 S13G21    29.89S
MORRIS         MOSUNNY   77  55  47 S16       29.89F
ALEXANDRIA     MOSUNNY   73  56  54 S16G25    29.95F
ELBOW LAKE     FAIR      74  57  55 S17       29.89F
WADENA         SUNNY     68  55  64 SE12      29.94F
GLENWOOD       SUNNY     73  55  53 SE13G20   29.95F
APPLETON       MOSUNNY   79  54  41 S15       29.90F
BENSON         MOSUNNY   75  55  50 SW13      29.92F
ORTONVILLE     MOSUNNY   77  55  47 S12       29.89F
MADISON        SUNNY     81  55  41 S14G20    29.90F
WILLMAR        FAIR      75  52  43 S9        29.96F
$$
MNZ033>034-036-042>043-049>051-058-059-182300-
   Central Minnesota

CITY           SKY/WX    TMP DP  RH WIND       PRES   REMARKS
ST CLOUD       MOSUNNY   75  56  51 S12       29.97F
SAUK CENTRE    FAIR      73  55  53 S14       29.96F
PAYNESVILLE    MOSUNNY   69  53  55 SE7       29.97S
AITKIN         SUNNY     64  54  68 SE8       29.99F
PINE RIVER     SUNNY     61  54  77 SE10      30.01F
BRAINERD       SUNNY     60  52  74 VRB6      29.99F
STAPLES        SUNNY     66  54  63 SE8G17    29.96F
LONG PRAIRIE   PTSUNNY   68  55  64 SE13G18   29.96F
LITTLE FALLS   SUNNY     70  54  56 SE9       29.98F
LITCHFIELD     MOSUNNY   75  54  46 SE8       29.97F
BUFFALO        MOSUNNY   74  51  44 SE9       29.99F
MAPLE LAKE     MOSUNNY   74  57  56 SE6       29.99F
$$
MNZ037-044-045-052-053-182300-
   East Central Minnesota

CITY           SKY/WX    TMP DP  RH WIND       PRES   REMARKS
PRINCETON      SUNNY     72  57  60 SE7       30.00F
MORA           SUNNY     64  54  68 SE5       30.03F
CAMBRIDGE      SUNNY     72  57  60 SE6       29.99F
RUSH CITY      MOSUNNY   68  56  65 SE3       30.02F
MOOSE LAKE     PTSUNNY   59  50  72 E6        30.03F
HINCKLEY       FAIR      64  55  72 SE6       30.02F
CLOQUET        CLOUDY    48  45  87 E9        30.06F
MCGREGOR       SUNNY     59  52  77 SE9       30.02F
$$
MNZ071>073-080-081-089-090-097-098-182300-
   Southwest Minnesota

CITY           SKY/WX    TMP DP  RH WIND       PRES   REMARKS
MONTEVIDEO     SUNNY     79  55  44 S7G17     29.93F
GRANITE FALLS  SUNNY     76  53  44 SE14      29.95F
CANBY          MOSUNNY   76  55  47 S8        29.92F
MARSHALL       SUNNY     75  54  46 S17G23    29.93F
REDWOOD FALLS  SUNNY     76  49  38 S16       29.95F
OLIVIA         SUNNY     73  50  43 S9        29.95F
PIPESTONE      MOSUNNY   73  52  46 S14       29.95F
WINDOM         SUNNY     73  48  40 S10       29.98S
WORTHINGTON    SUNNY     72  50  46 S10       29.98S
JACKSON        SUNNY     73  48  40 SE10      29.99F
TRACY          SUNNY     75  54  47 S10       29.96S
SLAYTON        MOSUNNY   74  50  43 S5G17     29.97F
$$
MNZ065>067-074>077-082>085-091>093-182300-
   South Central Minnesota

CITY           SKY/WX    TMP DP  RH WIND       PRES   REMARKS
MANKATO        SUNNY     73  50  43 S12       29.99S
NEW ULM        SUNNY     73  54  49 SE13      29.97F
ST JAMES       SUNNY     75  46  35 SE9G17    29.98F
FAIRMONT       SUNNY     73  43  33 S12G17    29.98F
GLENCOE        MOSUNNY   76  48  37 SE9       29.97F
FARIBAULT      SUNNY     77  43  29 S7        30.01F
OWATONNA       MOSUNNY   73  52  46 SE8       30.01F
WASECA         SUNNY     72  43  35 S10       30.03S
ALBERT LEA     SUNNY     73  50  43 S12       30.01F
$$
MNZ078>079-086>088-094>096-182300-
   Southeast Minnesota

CITY           SKY/WX    TMP DP  RH WIND       PRES   REMARKS
ROCHESTER      MOSUNNY   69  52  54 S9        30.05F
RED WING       SUNNY     72  55  56 SE10      30.01F
STANTON        SUNNY     73  51  46 S7        30.00S
DODGE CENTER   MOSUNNY   72  52  49 S13       30.03S
WINONA         SUNNY     68  57  68 E12       30.06F
AUSTIN         SUNNY     72  54  53 S8        30.02F
PRESTON        MOSUNNY   70  58  66 SE7G16    30.05F
$$
ABBREVIATIONS USED IN REMARKS
   TC - TEMPERATURES IN CELSIUS
  WCI - WIND CHILL INDEX
   HX - HEAT INDEX
  VSB - VISIBILITY
$$


USA.gov is the U.S. government's official web portal to all federal, state and local government web resources and services.